Regional Weather Roundup
Issued by NWS

Home | Current Version | Previous Version | Text Only | Print | Product List | Glossary Off
Versions: 1 2 3 4 5 6 7 8 9 10 11 12 13 14 15 16 17 18 19 20 21 22 23 24 25 26 27 28 29 30 31 32 33 34 35 36 37 38 39 40 41 42 43 44 45 46 47 48 49 50

000
ASUS43 KDTX 181801
RWRMI
MICHIGAN HOURLY REGIONAL WEATHER ROUNDUP
NATIONAL WEATHER SERVICE DETROIT/PONTIAC MI
200 PM EDT THU SEP 18 2014

NOTE: "FAIR" INDICATES FEW OR NO CLOUDS BELOW 12,000 FEET WITH NO
SIGNIFICANT WEATHER AND/OR OBSTRUCTION TO VISIBILITY.

MIZ047>049-052>055-059>063-066>070-074>076-081>083-181900-
SOUTHEAST LOWER MICHIGAN

CITY           SKY/WX    TMP DP  RH WIND       PRES   REMARKS
ADRIAN         PTSUNNY   69  49  48 VRB6      30.15F
6HR MIN TEMP:  46; 6HR MAX TEMP:  69;

ALMA           CLOUDY    55  51  87 NE6       30.21R
ANN ARBOR      CLOUDY    65  48  54 N6        30.15S
BAD AXE        CLOUDY    55  45  71 N8        30.21S
6HR MIN TEMP:  49; 6HR MAX TEMP:  56;

CARO           CLOUDY    58  49  74 N6        30.20S
DETROIT CITY   CLOUDY    67  49  52 N8        30.16S
6HR MIN TEMP:  55; 6HR MAX TEMP:  68;

DETROIT        CLOUDY    69  51  52 NW5       30.15F
6HR MIN TEMP:  50; 6HR MAX TEMP:  69;

FLINT          CLOUDY    61  51  70 CALM      30.18S
6HR MIN TEMP:  47; 6HR MAX TEMP:  63;

GROSSE ILE     PTSUNNY   66  52  59 E5        30.13F
HILLSDALE      SUNNY     67  47  48 E5        30.15S
6HR MIN TEMP:  48; 6HR MAX TEMP:  68;

HOWELL         CLOUDY    61  51  69 N3        30.17S
6HR MIN TEMP:  44; 6HR MAX TEMP:  63;


CITY           SKY/WX    TMP DP  RH WIND       PRES   REMARKS
JACKSON        MOSUNNY   68  50  52 NW5       30.16S
6HR MIN TEMP:  42; 6HR MAX TEMP:  68;

LAMBERTVILLE   SUNNY     68  52  56 NE3       30.15S
LANSING        CLOUDY    62  51  67 N5        30.18S
6HR MIN TEMP:  44; 6HR MAX TEMP:  62;

LAPEER         CLOUDY    55  50  83 NE7       30.19S
MASON          PTSUNNY   63  51  64 N7        30.16S
MONROE         MOSUNNY   66  50  55 CALM      30.13S
PONTIAC        PTSUNNY   62  49  62 N6        30.16S
6HR MIN TEMP:  49; 6HR MAX TEMP:  64;

PORT HOPE        N/A     52  41  66 NE12      30.21R
6HR MIN TEMP:  52; 6HR MAX TEMP:  53;

PORT HURON     CLOUDY    57  52  82 N7        30.18S
TRI CITIES     CLOUDY    57  48  72 NE12      30.22S
6HR MIN TEMP:  53; 6HR MAX TEMP:  57;

TROY           CLOUDY    63  50  62 NE7       30.17S
SAGINAW HB     CLOUDY    55  48  76 NE8       30.20R
$$
MIZ043>046-050>051-056>058-064>065-071>073-077>080-181900-
SOUTHWEST LOWER MICHIGAN

CITY           SKY/WX    TMP DP  RH WIND       PRES   REMARKS
BATTLE CREEK   SUNNY     66  49  54 N5        30.17S
6HR MIN TEMP:  45; 6HR MAX TEMP:  67;

BENTON HARBOR    N/A     65  52  62 NW7       30.15S
BIG RAPIDS     CLOUDY    56  52  85 SE6       30.19S
6HR MIN TEMP:  49; 6HR MAX TEMP:  56;

COLDWATER      PTSUNNY   68  48  48 N5        30.15S
6HR MIN TEMP:  43; 6HR MAX TEMP:  69;

FREMONT        CLOUDY    60  51  74 E6        30.18S
HOLLAND        PTSUNNY   69  53  56 S6        30.17S
6HR MIN TEMP:  50; 6HR MAX TEMP:  70;

GRAND RAPIDS   PTSUNNY   66  55  67 VRB3      30.17S
6HR MIN TEMP:  45; 6HR MAX TEMP:  66;

IONIA          CLOUDY    61  53  75 NE6       30.17S
KALAMAZOO      SUNNY     69  48  47 VRB3      30.16S
6HR MIN TEMP:  43; 6HR MAX TEMP:  69;

LUDINGTON      PTSUNNY   59  50  72 CALM      30.19S
6HR MIN TEMP:  49; 6HR MAX TEMP:  60;

MARSHALL       MOSUNNY   65  48  55 NW6       30.16S
MOUNT PLEASANT CLOUDY    53  49  88 NE5       30.21S
6HR MIN TEMP:  48; 6HR MAX TEMP:  53;

MUSKEGON       PTSUNNY   66  52  60 NW3       30.17S
6HR MIN TEMP:  50; 6HR MAX TEMP:  67;

SOUTH HAVEN    SUNNY     68  52  55 NW7       30.16S
$$
MIZ016>042-181900-
NORTHERN LOWER MICHIGAN

CITY           SKY/WX    TMP DP  RH WIND       PRES   REMARKS
ALPENA         PTSUNNY   50  35  56 CALM      30.24S
6HR MIN TEMP:  45; 6HR MAX TEMP:  51;

BEAVER ISLAND  CLOUDY    52  39  59 SE7       30.24S
6HR MIN TEMP:  45; 6HR MAX TEMP:  55;

CADILLAC       MOSUNNY   57  47  67 CALM      30.18S
CHARLEVOIX     MOSUNNY   55  40  56 E7        30.25S
6HR MIN TEMP:  47; 6HR MAX TEMP:  55;

FRANKFORT      MOSUNNY   61  44  54 W6        30.19S
GAYLORD        PTSUNNY   52  37  56 VRB5      30.22S
6HR MIN TEMP:  43; 6HR MAX TEMP:  52;

GRAYLING       CLOUDY    53  41  63 CALM      30.23S
6HR MIN TEMP:  46; 6HR MAX TEMP:  54;

HARBOR SPRINGS MOSUNNY   55  38  51 E7        30.23S
HOUGHTON LAKE  CLOUDY    53  44  71 SW3       30.21S
6HR MIN TEMP:  46; 6HR MAX TEMP:  54;

MANISTEE       PTSUNNY   59  46  63 NW8       30.20S
OSCODA         CLOUDY    52  41  67 NE10      30.22S
PELLSTON       CLOUDY    53  36  52 VRB3      30.23S
6HR MIN TEMP:  44; 6HR MAX TEMP:  56;

ROGERS CITY    CLOUDY    48  38  69 NE6       30.27R
TRAVERSE CITY  PTSUNNY   59  43  55 NE8       30.19S
6HR MIN TEMP:  50; 6HR MAX TEMP:  59;

$$
MIZ007>008-015-181900-
EASTERN UPPER MICHIGAN

CITY           SKY/WX    TMP DP  RH WIND       PRES   REMARKS
KINROSS        PTSUNNY   50  34  53 S6        30.25S
6HR MIN TEMP:  36; 6HR MAX TEMP:  50;

MACKINAC ISLAN MOSUNNY   50  38  65 E10       30.25S
6HR MIN TEMP:  42; 6HR MAX TEMP:  50;

NEWBERRY       PTSUNNY   51  35  54 S5        30.23S
S. S. MARIE    MOSUNNY   49  31  49 VRB3      30.25S
6HR MIN TEMP:  37; 6HR MAX TEMP:  50;

$$
MIZ004>006-011>014-085-181900-
CENTRAL UPPER MICHIGAN

CITY           SKY/WX    TMP DP  RH WIND       PRES   REMARKS
MANISTIQUE     PTSUNNY   52  39  61 CALM      30.24S
ESCANABA       MOSUNNY   50  37  62 E5        30.23S
6HR MIN TEMP:  39; 6HR MAX TEMP:  52;

MENOMINEE      MOSUNNY   54  41  62 E6        30.22S
6HR MIN TEMP:  41; 6HR MAX TEMP:  54;

SAWYER-GWINN   SUNNY     52  36  54 SE7       30.20F
$$
MIZ001>003-009>011-084-181900-
WESTERN UPPER MICHIGAN

CITY           SKY/WX    TMP DP  RH WIND       PRES   REMARKS
IRON MOUNTAIN  SUNNY     54  38  54 S6        30.20S
6HR MIN TEMP:  39; 6HR MAX TEMP:  54;

HOUGHTON       MOSUNNY   49  34  56 SE13      30.19S
6HR MIN TEMP:  37; 6HR MAX TEMP:  50;

COPPER HARBOR    N/A     47  33  58 S8        30.22S
6HR MIN TEMP:  33; 6HR MAX TEMP:  48;

IRONWOOD       CLOUDY    52  46  82 SW8       30.14S
6HR MIN TEMP:  39; 6HR MAX TEMP:  52;

$$

ABBREVIATIONS USED IN REMARKS
   TC - TEMPERATURE IN CELSIUS
  WCI - WIND CHILL INDEX
   HX - HEAT INDEX
  VSB - VISIBILITY




USA.gov is the U.S. government's official web portal to all federal, state and local government web resources and services.